TimeMST,TemperatureF,Dew PointF,Humidity,Sea Level PressureIn,VisibilityMPH,Wind Direction,Wind SpeedMPH,Gust SpeedMPH,PrecipitationIn,Events,Conditions,WindDirDegrees,DateUTC
12:51 AM,7.0,3.0,84,30.48,2.0,Calm,Calm,-,N/A,,Mostly Cloudy,0,2013-01-24 07:51:00
1:51 AM,10.0,5.0,80,30.45,2.5,Calm,Calm,-,N/A,,Haze,0,2013-01-24 08:51:00
2:51 AM,10.0,5.0,80,30.45,2.0,NW,4.6,-,N/A,,Haze,310,2013-01-24 09:51:00
3:51 AM,12.0,8.1,84,30.45,2.5,Calm,Calm,-,N/A,,Overcast,0,2013-01-24 10:51:00
4:48 AM,12.2,8.6,85,30.28,1.8,SSE,3.5,-,0.00,Snow,Light Snow,160,2013-01-24 11:48:00
4:51 AM,14.0,9.0,80,30.47,1.5,South,3.5,-,0.00,Snow,Light Snow,170,2013-01-24 11:51:00
5:11 AM,14.0,10.4,86,30.26,1.8,SW,8.1,-,0.00,Snow,Light Snow,220,2013-01-24 12:11:00
5:30 AM,15.8,12.2,86,30.26,2.0,SW,8.1,-,0.01,,Overcast,220,2013-01-24 12:30:00
5:51 AM,15.1,12.0,88,30.45,2.0,SSE,3.5,-,0.01,,Overcast,160,2013-01-24 12:51:00
6:05 AM,15.8,12.2,86,30.25,1.8,SSE,3.5,-,0.00,Rain,Light Freezing Rain,160,2013-01-24 13:05:00
6:19 AM,17.6,14.0,86,30.25,2.0,Calm,Calm,-,0.01,Rain,Light Freezing Rain,0,2013-01-24 13:19:00
6:33 AM,17.6,14.0,86,30.25,1.8,East,4.6,-,0.02,Rain,Light Freezing Rain,80,2013-01-24 13:33:00
6:51 AM,19.9,16.0,85,30.42,1.8,ENE,6.9,-,0.03,Rain,Light Freezing Rain,70,2013-01-24 13:51:00
7:11 AM,24.8,19.4,80,30.24,2.0,East,3.5,-,0.01,Rain,Light Freezing Rain,80,2013-01-24 14:11:00
7:19 AM,24.8,21.2,86,30.24,2.0,Calm,Calm,-,0.02,Rain,Light Freezing Rain,0,2013-01-24 14:19:00
7:51 AM,25.0,21.9,88,30.41,2.5,NW,3.5,-,0.05,Rain,Light Freezing Rain,320,2013-01-24 14:51:00
8:03 AM,26.6,23.0,86,30.25,1.5,NNW,3.5,-,0.02,Rain,Light Freezing Rain,340,2013-01-24 15:03:00
8:41 AM,26.6,24.8,93,30.25,0.8,NW,5.8,-,0.05,Rain,Light Freezing Rain,310,2013-01-24 15:41:00
8:51 AM,27.0,25.0,92,30.41,0.5,NNW,8.1,-,0.05,Fog-Rain,Light Freezing Rain,330,2013-01-24 15:51:00
9:01 AM,24.8,23.0,93,30.25,0.5,North,10.4,-,0.01,Fog-Rain,Light Freezing Rain,350,2013-01-24 16:01:00
9:10 AM,24.8,21.2,86,30.26,0.5,NNW,10.4,-,0.01,Fog-Rain,Light Freezing Rain,340,2013-01-24 16:10:00
9:15 AM,24.8,21.2,86,30.26,0.5,NNW,10.4,-,0.01,Fog-Snow,Light Snow,340,2013-01-24 16:15:00
9:51 AM,24.1,21.0,88,30.44,0.8,North,8.1,-,0.02,Snow,Light Snow,10,2013-01-24 16:51:00
10:15 AM,24.8,21.2,86,30.28,0.8,North,6.9,-,0.02,Snow,Light Snow,360,2013-01-24 17:15:00
10:37 AM,24.8,21.2,86,30.28,0.8,NNW,3.5,-,0.03,Snow,Light Snow,340,2013-01-24 17:37:00
10:42 AM,24.8,21.2,86,30.28,1.0,Calm,Calm,-,0.04,Snow,Light Snow,0,2013-01-24 17:42:00
10:51 AM,24.1,21.0,88,30.46,0.8,NW,3.5,-,0.04,Snow,Light Snow,320,2013-01-24 17:51:00
11:16 AM,24.8,21.2,86,30.29,1.0,Calm,Calm,-,0.01,Snow,Light Snow,0,2013-01-24 18:16:00
11:45 AM,24.8,23.0,93,30.28,1.0,Calm,Calm,-,0.02,,Overcast,0,2013-01-24 18:45:00
11:51 AM,25.0,23.0,92,30.45,1.2,Calm,Calm,-,0.02,,Overcast,0,2013-01-24 18:51:00
12:51 PM,27.0,24.1,89,30.40,1.0,Calm,Calm,-,0.00,,Overcast,0,2013-01-24 19:51:00
1:40 PM,28.4,24.8,86,30.25,1.0,Calm,Calm,-,0.00,,Overcast,0,2013-01-24 20:40:00
1:51 PM,28.0,25.0,88,30.38,1.0,Calm,Calm,-,0.00,,Overcast,0,2013-01-24 20:51:00
2:46 PM,28.4,26.6,93,30.25,1.2,Calm,Calm,-,N/A,,Overcast,0,2013-01-24 21:46:00
2:51 PM,28.9,26.1,89,30.38,1.2,Calm,Calm,-,N/A,,Overcast,0,2013-01-24 21:51:00
3:28 PM,28.4,26.6,93,30.27,1.0,Calm,Calm,-,0.01,Rain,Light Freezing Rain,0,2013-01-24 22:28:00
3:51 PM,30.0,27.0,88,30.39,0.8,Calm,Calm,-,0.01,Rain,Light Freezing Rain,0,2013-01-24 22:51:00
3:56 PM,30.2,28.4,93,30.27,0.8,Calm,Calm,-,0.01,,Overcast,0,2013-01-24 22:56:00
4:34 PM,30.2,28.4,93,30.27,0.8,SW,5.8,-,0.01,,Overcast,220,2013-01-24 23:34:00
4:49 PM,30.2,28.4,93,30.27,0.8,SW,3.5,-,0.01,,Overcast,220,2013-01-24 23:49:00
4:51 PM,30.0,28.9,96,30.39,0.8,SW,3.5,-,0.01,,Overcast,220,2013-01-24 23:51:00
5:08 PM,30.2,28.4,93,30.28,1.0,Calm,Calm,-,N/A,,Overcast,0,2013-01-25 00:08:00
5:19 PM,30.2,28.4,93,30.29,0.8,Calm,Calm,-,0.01,,Overcast,0,2013-01-25 00:19:00
5:26 PM,30.2,28.4,93,30.29,0.8,Calm,Calm,-,0.01,,Overcast,0,2013-01-25 00:26:00
5:31 PM,30.2,28.4,93,30.28,1.0,SW,3.5,-,0.01,Rain,Light Freezing Rain,230,2013-01-25 00:31:00
5:39 PM,30.2,28.4,93,30.28,0.8,Calm,Calm,-,0.01,Rain,Light Freezing Rain,0,2013-01-25 00:39:00
5:46 PM,30.2,28.4,93,30.28,1.0,Calm,Calm,-,0.01,Rain,Light Freezing Rain,0,2013-01-25 00:46:00
6:03 PM,30.2,28.4,93,30.29,1.5,Calm,Calm,-,0.00,,Overcast,0,2013-01-25 01:03:00
6:10 PM,30.2,28.4,93,30.29,1.2,Calm,Calm,-,0.00,,Overcast,0,2013-01-25 01:10:00
6:16 PM,30.2,28.4,93,30.29,1.2,Calm,Calm,-,0.00,,Overcast,0,2013-01-25 01:16:00
6:40 PM,30.2,28.4,93,30.31,1.5,Calm,Calm,-,0.01,,Overcast,0,2013-01-25 01:40:00
6:48 PM,30.2,28.4,93,30.31,1.5,Calm,Calm,-,0.01,,Overcast,0,2013-01-25 01:48:00
6:51 PM,30.9,28.9,92,30.40,1.5,Calm,Calm,-,0.01,,Overcast,0,2013-01-25 01:51:00
7:37 PM,30.2,30.2,100,30.30,1.2,Calm,Calm,-,0.00,,Overcast,0,2013-01-25 02:37:00
7:43 PM,30.2,28.4,93,30.30,1.2,SW,4.6,-,0.00,,Overcast,230,2013-01-25 02:43:00
7:51 PM,30.9,28.9,92,30.37,1.2,SW,4.6,-,0.00,,Overcast,220,2013-01-25 02:51:00
8:08 PM,30.2,28.4,93,30.29,1.2,SE,4.6,-,0.00,Rain,Light Freezing Rain,130,2013-01-25 03:08:00
8:33 PM,32.0,30.2,93,30.28,1.2,Calm,Calm,-,0.00,,Overcast,0,2013-01-25 03:33:00
8:51 PM,32.0,30.0,92,30.35,1.2,SW,4.6,-,0.00,,Overcast,230,2013-01-25 03:51:00
8:59 PM,30.2,30.2,100,30.29,1.2,SSW,3.5,-,N/A,,Overcast,200,2013-01-25 03:59:00
9:04 PM,30.2,30.2,100,30.29,1.2,SW,3.5,-,N/A,,Overcast,230,2013-01-25 04:04:00
9:09 PM,30.2,30.2,100,30.29,1.2,Calm,Calm,-,N/A,,Overcast,0,2013-01-25 04:09:00
9:24 PM,32.0,30.2,93,30.30,1.2,Calm,Calm,-,0.00,,Overcast,0,2013-01-25 04:24:00
9:29 PM,32.0,30.2,93,30.30,1.2,Calm,Calm,-,0.00,,Overcast,0,2013-01-25 04:29:00
9:36 PM,32.0,30.2,93,30.30,1.2,Calm,Calm,-,0.00,Rain,Light Freezing Rain,0,2013-01-25 04:36:00
9:51 PM,32.0,30.0,92,30.38,1.2,Calm,Calm,-,0.00,Rain,Light Freezing Rain,0,2013-01-25 04:51:00
9:59 PM,32.0,30.2,93,30.30,1.2,Calm,Calm,-,0.00,,Overcast,0,2013-01-25 04:59:00
10:40 PM,32.0,30.2,93,30.32,1.0,Calm,Calm,-,0.01,,Overcast,0,2013-01-25 05:40:00
10:51 PM,32.0,30.0,92,30.40,1.0,Calm,Calm,-,0.01,,Overcast,0,2013-01-25 05:51:00
11:08 PM,32.0,30.2,93,30.32,1.0,Calm,Calm,-,0.00,,Overcast,0,2013-01-25 06:08:00
11:51 PM,32.0,30.9,96,30.40,1.0,Calm,Calm,-,0.00,,Overcast,0,2013-01-25 06:51:00